Vertical_Velocity
-1 -1 -1 2 -1 2 2 -0 0 1 2 2 1 2 1 -1 0 0 1 -1 -0 2 -0 3 1 3 -1 1 -1 -1 -1 -2 0 1 -0 0 1 3 4 7 7 6 3
2 1 1 -1 1 1 1 1 1 1 0 0 1 2 0 1 -0 0 -1 -1 1 2 -1 1 -0 -2 -2 3 -0 -2 0 -0 -2 -1 1 1 1 -0 -1 -2 -0 3 6
1 1 -1 0 0 -0 -0 -0 0 0 0 0 1 1 2 0 -1 0 3 -2 1 0 -1 2 -1 -3 -2 -3 -1 -1 -1 -0 -0 -1 -1 -0 -1 -0 -2 0 0 5 2
1 -1 0 -1 0 -0 1 1 0 -0 1 2 1 -0 -0 -0 1 1 -1 -0 0 0 0 -1 -1 -1 -3 -0 -1 -1 -2 -1 -0 0 -1 -1 1 1 -1 -2 -1 0 3
1 1 0 1 0 1 2 1 -0 4 0 -0 -0 0 0 0 0 0 -0 0 -0 -1 -1 -1 -0 -2 -1 -1 -1 -1 -1 -1 -2 -2 -1 -0 -0 -1 -1 -0 1 -1 -2
1 1 1 1 1 1 -0 1 1 -0 0 0 -1 -0 0 1 1 1 1 1 -0 -0 -1 -1 -2 -2 -2 -2 -1 -1 -2 -2 -1 -1 -2 -1 -1 -1 -2 -1 -2 -1 2
2 2 1 1 0 1 1 2 -1 0 -2 0 -2 0 1 1 1 0 -0 -1 -1 -2 -1 -1 -2 -2 -1 -2 -1 -2 -2 -2 -2 -2 -2 -3 -2 -1 -1 -2 -2 -1 1
1 1 2 1 1 0 -0 1 3 -4 -2 0 -1 2 -1 1 1 0 0 -1 -1 -1 -0 -1 -1 -2 -2 -2 -2 -1 -1 -1 -0 -1 -2 -3 -2 -2 -2 -2 -2 -1 -1
1 2 1 2 2 3 1 -0 0 2 -2 -2 1 -1 -2 -0 -0 0 0 -0 0 -1 -2 -1 -1 -2 -1 -1 -1 -1 -0 -1 -1 -2 -3 -3 -3 -3 -3 -3 -3 -3 -1
2 2 3 3 4 3 2 2 1 3 2 0 -0 0 -0 -1 -1 -0 0 1 0 -0 -1 -3 -2 -2 -3 -2 -3 -1 -2 -1 -0 -1 -1 -1 -2 -1 -1 -2 -3 -2 -2
3 2 2 1 1 1 1 2 -0 -0 -0 -1 -1 -3 -2 -2 -2 -2 -1 -1 -0 -1 -1 -2 -2 -2 -2 -1 -1 -2 -2 -1 -2 -2 -1 -2 -1 -2 -2 -2 -2 -2 -1
2 3 3 1 1 1 0 1 -0 1 0 -1 -1 -1 -1 -3 -3 -3 -3 -2 -4 -2 0 0 -0 -1 -1 -1 -1 -1 -1 -2 -2 -2 -2 -3 -2 -2 -1 -3 -1 -2 -2
-1 2 3 2 2 2 -1 1 -0 -1 0 -1 -1 -1 -2 -2 -2 -2 -3 -1 -3 -5 -3 0 2 3 -0 -1 1 -1 -3 -0 -1 -1 -2 -2 -0 -1 -1 -1 -1 -1 -1
4 1 1 1 0 1 1 -1 1 -1 -1 2 0 -0 -1 -2 -3 -2 -1 0 -3 -3 -4 -3 -3 -0 -0 -1 -3 -1 -3 -4 -3 -2 -2 -2 -1 -1 0 -1 -2 -1 -2
4 -0 -1 2 2 1 -1 2 -1 1 -1 -2 0 1 1 1 1 -0 -1 -1 -1 -3 -6 -9 -4 -2 -1 -1 1 -0 -1 -1 -1 -1 -1 -2 -2 -3 -2 -3 -2 -3 -3
2 2 3 1 1 1 3 -1 -0 0 1 1 -1 -0 -1 -1 -3 -2 -1 -1 -0 2 -1 -8 -5 -6 -2 -1 -3 -3 -4 -3 -3 -4 -2 -2 -1 -1 -2 -2 -1 -3 -1
5 2 1 3 2 1 0 1 2 1 -1 -4 -4 -4 -3 -3 -2 -1 -1 -0 -0 2 -0 -6 -5 -6 -8 -6 -1 2 -1 -2 -2 -0 -2 -1 -1 -2 -2 -2 0 -1 -3
2 2 2 2 3 4 3 2 0 -1 -1 -2 -1 -3 -2 -2 -3 -1 -1 -1 -1 2 4 -0 -4 -8 -8 -4 -5 -4 1 -1 -3 -5 -0 -0 -2 -3 2 -3 1 -1 2
4 4 3 3 3 2 2 1 0 -1 -1 -0 0 -2 -2 -0 -4 -1 -0 -2 -1 1 1 2 -6 -2 -6 -6 -7 -3 -5 -1 -0 -1 -4 -4 -2 1 1 -2 -3 -2 -0
3 3 3 4 3 3 1 1 0 -0 -1 -4 -2 -2 -2 -2 -1 0 -0 -1 -1 -2 0 1 -0 -5 0 -6 -0 -7 -9 -4 -8 1 1 -3 -3 -2 -4 -2 -3 -3 -2
3 3 2 1 2 1 -0 -0 1 -0 0 3 1 -0 -0 -0 1 -1 -1 -0 3 1 -2 -3 -3 -2 -6 -4 -4 -2 -2 -8 -6 -7 -6 -2 -0 -0 2 -1 -1 -2 -1
-4 -1 -1 -0 1 2 0 2 1 -4 0 -1 -3 -2 -2 1 -2 -0 -2 1 -5 -5 -3 -1 -3 -5 -5 -1 2 0 -1 -2 -10 -5 -7 -9 -6 -7 -2 -7 -2 2 -1
0 -2 -3 -2 -6 -5 2 -0 1 2 0 -4 -4 -3 -4 -3 -0 -2 0 1 -2 -0 16 11 6 7 6 3 1 -1 -0 2 -6 -7 -3 -10 -6 -8 -6 -10 -3 -2 -4
-2 -4 -1 -2 -4 -5 -0 1 -2 2 1 -2 -1 -0 -2 -4 -1 1 -3 -7 -4 -1 -4 -8 2 4 1 2 -1 -5 -6 -6 -5 -6 8 -4 -1 -8 0 -6 -0 -2 -0
0 -0 -2 -4 -3 -6 2 2 4 0 -2 -3 1 -0 -3 -1 -2 -5 2 5 -3 -7 -6 -4 -3 1 -1 -4 1 14 6 10 3 -0 0 5 -0 -8 -10 -13 -15 -15 -14
-5 -2 -3 -2 -2 -2 2 1 3 -0 -3 -2 -1 -2 -3 4 -6 -6 -0 2 -3 -8 -3 -3 -7 -6 -9 -11 -10 -8 7 -1 0 -12 6 3 -4 7 -5 -6 -5 -2 -10
Height
1537 1539 1541 1543 1545 1547 1549 1551 1554 1554 1556 1557 1559 1561 1562 1562 1564 1565 1565 1567 1568 1570 1570 1571 1572 1571 1572 1572 1572 1572 1573 1573 1573 1573 1573 1573 1574 1574 1574 1575 1576 1576 1576
1536 1537 1539 1542 1544 1546 1548 1551 1553 1554 1555 1557 1558 1560 1561 1562 1564 1565 1566 1566 1567 1568 1569 1569 1569 1570 1571 1571 1571 1571 1571 1572 1573 1572 1573 1573 1574 1574 1573 1573 1574 1574 1575
1534 1536 1538 1541 1543 1545 1547 1549 1551 1553 1554 1556 1557 1559 1560 1561 1563 1565 1564 1566 1567 1566 1567 1569 1568 1570 1570 1570 1570 1570 1570 1571 1571 1571 1572 1572 1573 1573 1572 1572 1574 1575 1574
1532 1535 1537 1539 1541 1543 1545 1547 1549 1551 1553 1555 1556 1558 1560 1562 1563 1563 1564 1566 1566 1566 1566 1567 1568 1569 1569 1570 1569 1568 1569 1569 1569 1569 1569 1570 1571 1571 1571 1572 1572 1572 1572
1531 1534 1536 1538 1540 1542 1544 1546 1548 1551 1552 1553 1555 1557 1560 1562 1563 1564 1564 1565 1565 1565 1566 1567 1568 1568 1568 1569 1568 1568 1568 1567 1567 1567 1567 1567 1568 1568 1568 1569 1569 1570 1570
1530 1533 1535 1538 1540 1542 1544 1545 1547 1549 1551 1553 1554 1557 1560 1562 1563 1564 1564 1565 1565 1565 1565 1566 1567 1568 1568 1568 1567 1567 1567 1567 1567 1566 1566 1565 1565 1565 1565 1566 1566 1567 1566
1530 1533 1535 1537 1539 1542 1543 1545 1546 1549 1550 1553 1553 1557 1559 1561 1563 1563 1564 1564 1565 1565 1566 1566 1566 1567 1567 1566 1566 1566 1566 1566 1566 1565 1564 1564 1564 1563 1563 1562 1562 1563 1563
1529 1532 1535 1537 1539 1541 1543 1544 1546 1546 1548 1551 1553 1555 1558 1562 1561 1562 1563 1564 1564 1565 1565 1565 1564 1564 1564 1565 1565 1565 1564 1564 1564 1564 1564 1563 1563 1562 1561 1560 1560 1559 1558
1528 1531 1534 1536 1538 1540 1542 1543 1545 1547 1547 1549 1551 1553 1555 1557 1559 1561 1562 1563 1564 1564 1565 1565 1564 1563 1563 1562 1562 1562 1562 1562 1562 1561 1562 1562 1562 1561 1560 1559 1558 1557 1556
1525 1529 1532 1535 1537 1538 1540 1542 1543 1545 1546 1547 1549 1551 1551 1553 1556 1559 1560 1561 1562 1563 1563 1563 1563 1562 1561 1561 1560 1559 1559 1559 1559 1559 1559 1559 1560 1560 1559 1558 1556 1555 1554
1523 1526 1529 1532 1535 1536 1538 1539 1541 1543 1544 1546 1547 1548 1550 1552 1554 1556 1558 1559 1560 1561 1561 1561 1560 1560 1559 1558 1557 1556 1556 1556 1556 1556 1556 1556 1556 1556 1555 1554 1553 1553 1551
1520 1524 1527 1530 1532 1534 1536 1537 1539 1541 1542 1544 1545 1546 1548 1550 1552 1554 1555 1556 1557 1558 1559 1559 1558 1557 1556 1555 1554 1552 1552 1551 1551 1551 1551 1552 1552 1551 1550 1550 1550 1549 1548
1517 1521 1524 1527 1529 1532 1533 1535 1536 1538 1540 1541 1543 1544 1546 1547 1548 1550 1552 1552 1552 1551 1551 1554 1555 1554 1552 1551 1551 1549 1548 1547 1546 1546 1546 1547 1547 1545 1545 1544 1544 1544 1543
1516 1519 1522 1525 1527 1529 1531 1532 1534 1536 1538 1539 1540 1542 1543 1544 1546 1547 1548 1549 1548 1547 1546 1547 1548 1549 1548 1547 1547 1545 1544 1543 1542 1541 1541 1540 1539 1539 1539 1538 1539 1539 1538
1514 1517 1520 1523 1525 1526 1528 1530 1531 1533 1535 1537 1538 1539 1540 1542 1543 1544 1544 1545 1545 1544 1541 1541 1542 1542 1542 1542 1542 1540 1538 1538 1536 1535 1534 1534 1533 1533 1533 1533 1533 1533 1533
1512 1514 1517 1520 1522 1524 1525 1527 1529 1530 1531 1532 1534 1536 1537 1538 1539 1540 1540 1541 1540 1540 1537 1536 1537 1536 1537 1536 1535 1534 1533 1531 1531 1530 1529 1528 1528 1527 1527 1528 1529 1528 1528
1508 1511 1514 1516 1518 1520 1521 1523 1524 1525 1526 1528 1530 1532 1533 1533 1534 1535 1535 1535 1536 1535 1531 1529 1530 1531 1530 1530 1530 1528 1527 1525 1525 1524 1523 1522 1521 1521 1521 1521 1522 1522 1523
1505 1508 1510 1512 1514 1515 1516 1517 1519 1520 1522 1524 1525 1526 1527 1527 1528 1529 1529 1530 1530 1530 1527 1523 1524 1524 1525 1525 1523 1521 1520 1519 1518 1517 1517 1516 1516 1516 1517 1516 1516 1516 1516
1502 1504 1505 1507 1508 1510 1511 1512 1513 1515 1517 1518 1519 1520 1521 1521 1521 1522 1522 1522 1522 1522 1521 1518 1516 1518 1517 1518 1517 1515 1514 1512 1511 1511 1510 1510 1509 1510 1509 1509 1508 1508 1507
1497 1499 1500 1502 1503 1504 1506 1507 1508 1510 1511 1512 1513 1513 1514 1514 1514 1514 1514 1514 1515 1514 1514 1513 1511 1510 1511 1511 1511 1509 1507 1507 1505 1505 1504 1503 1503 1502 1502 1502 1501 1499 1497
1492 1493 1494 1496 1497 1499 1500 1502 1503 1503 1504 1504 1505 1506 1505 1506 1506 1505 1505 1506 1507 1506 1507 1506 1504 1504 1504 1505 1504 1503 1500 1499 1498 1498 1496 1496 1496 1495 1495 1494 1492 1492 1489
1487 1488 1488 1490 1491 1493 1495 1496 1497 1495 1496 1495 1495 1496 1497 1497 1497 1497 1499 1501 1500 1499 1500 1499 1498 1497 1497 1498 1498 1496 1495 1493 1491 1492 1490 1489 1490 1486 1486 1484 1484 1483 1482
1480 1480 1481 1482 1483 1485 1488 1489 1490 1489 1488 1486 1485 1486 1486 1487 1489 1489 1490 1491 1492 1494 1494 1493 1490 1489 1488 1489 1490 1490 1489 1488 1485 1485 1486 1478 1482 1476 1477 1477 1476 1476 1474
1471 1472 1472 1473 1474 1476 1479 1480 1481 1481 1479 1478 1478 1477 1476 1478 1480 1481 1481 1481 1480 1481 1482 1483 1481 1480 1480 1481 1482 1482 1482 1480 1476 1475 1477 1469 1472 1468 1468 1468 1467 1467 1466
1462 1462 1463 1464 1465 1466 1469 1469 1471 1470 1468 1467 1467 1467 1468 1468 1470 1473 1474 1472 1471 1470 1472 1473 1473 1473 1473 1474 1475 1475 1471 1471 1466 1464 1467 1465 1464 1461 1460 1459 1457 1458 1458
1454 1455 1455 1455 1455 1455 1456 1458 1460 1459 1456 1456 1456 1456 1458 1460 1461 1464 1464 1464 1461 1461 1463 1463 1463 1463 1465 1465 1467 1468 1465 1463 1461 1456 1459 1460 1457 1456 1451 1449 1449 1448 1446